Notices

Please take our survey and provide feedback: https://eccc.sondage-survey.ca/f/LanguageSelection.aspx?s=442ca660-fcf1-47c0-95a9-59707d6fd709

Please note that for the Engineering Climate Datasets, IDF dataset is available through this link.  Intensity-Duration-Frequency (IDF) Files: Includes the latest version of short-duration rainfall Intensity-Duration-Frequency (IDF) statistics in the form of tables and graphs with accompanying documentation for various locations across Canada.  Current IDF files can be accessed through our station finder application or downloaded for each province and territory across Canada.  In addition, historical versions of IDF files are also available for download.  Updates of IDF files are provided approximately every two years depending on the availability of data.   Thank you for your patience as we enhance our systems.

Hourly Data Report for November 17, 2019

QUALICUM BEACH AIRPORT
BRITISH COLUMBIA
Current Station Operator: ECCC - MSC

49°20'14.000" N
124°23'38.000" W
58.20 m
1026562
71766
VOQ

Download Data

Hourly Data (November 2019)
Hourly Data Report for November 17, 2019
TIME
LST
Temp Definition
°C
Dew Point Definition
°C
Rel Hum Definition
%
Precip. Amount Definition
mm

Wind Dir Definition
10's deg

Wind Spd Definition
km/h
Visibility Definition
km
Stn Press Definition
kPa
Hmdx Definition


Wind Chill Definition


Weather Definition


00:00 9.9 9.1 95 LegendMM 12 21   100.78     LegendNANA
01:00 9.9 9.3 96 LegendMM 12 17   100.78     LegendNANA
02:00 9.8 9.2 96 LegendMM 11 16   100.65     LegendNANA
03:00 9.9 9.3 96 LegendMM 12 15   100.71     LegendNANA
04:00 9.8 9.4 97 LegendMM 13 18   100.64     LegendNANA
05:00 9.8 9.4 97 LegendMM 11 16   100.61     LegendNANA
06:00 9.9 9.5 97 LegendMM 12 15   100.56     LegendNANA
07:00 10.1 9.6 97 LegendMM 13 12   100.59     LegendNANA
08:00 10.1 9.6 97 LegendMM 10 8   100.61     LegendNANA
09:00 10.1 9.6 97 LegendMM 13 11   100.70     LegendNANA
10:00 10.4 9.9 97 LegendMM 8 6   100.81     LegendNANA
11:00 10.5 10.0 97 LegendMM 10 9   100.89     LegendNANA
12:00 10.7 10.0 96 LegendMM 12 12   100.92     LegendNANA
13:00 11.4 10.4 94 LegendMM 12 6   101.02     LegendNANA
14:00 11.9 10.5 91 LegendMM 12 2   101.12     LegendNANA
15:00 12.1 10.7 91 LegendMM 30 4   101.17     LegendNANA
16:00 11.3 10.4 94 LegendMM 26 3   101.24     LegendNANA
17:00 10.6 9.9 95 LegendMM 29 2   101.34     LegendNANA
18:00 10.0 9.4 96 LegendMM   0   101.40     LegendNANA
19:00 9.7 9.2 97 LegendMM 25 2   101.44     LegendNANA
20:00 10.3 9.8 97 LegendMM 25 3   101.45     LegendNANA
21:00 9.7 9.2 97 LegendMM   0   101.49     LegendNANA
22:00 9.2 8.7 97 LegendMM 24 2   101.49     LegendNANA
23:00 8.7 8.3 97 LegendMM 25 1   101.48     LegendNANA

Notes on Data Quality.

Legend

  • E = Estimated
  • M = Missing
  • NA = Not Available*
  • [empty] = Indicates an unobserved value
Date modified: